Station 41040 - NORTH EQUATORIAL ONE- 470 NM East of Martinique Image indicating link to RSS feed of recent meteorological observations for station 41040


Conditions at 41040 as of
(2:30 am ADT)
0530 GMT on 04/15/2024:
     

Click on the graph icon in the table below to see a time series plot of the last five days of that observation.

5-day plot - Wind Direction Wind Direction (WDIR): E ( 90 deg true )
5-day plot - Wind Speed Wind Speed (WSPD): 13.6 kts
5-day plot - Wind Gust Wind Gust (GST): 15.5 kts
5-day plot - Atmospheric Pressure Atmospheric Pressure (PRES):29.89 in
5-day plot - Air Temperature Air Temperature (ATMP): 80.6 °F
5-day plot - Water Temperature Water Temperature (WTMP): 82.4 °F
5-day plot - Dew Point Dew Point (DEWP): 73.6 °F
5-day plot - Heat Index Heat Index (HEAT): 85.5 °F
5-day plot - Wind Speed at 10 Meters Wind Speed at 10 meters (WSPD10M): 13.6 kts
5-day plot - Wind Speed at 20 Meters Wind Speed at 20 meters (WSPD20M): 15.5 kts
5-day plot -  Wind Speed, Wind Gust and Atmospheric Pressure Combined plot of Wind Speed, Gust, and Air Pressure
Supplemental Measurements
Highest 1-minute Wind Speed
Time (ADT)5-day plot - 1-Minute Wind Speed WSPD 5-day plot - 1-Minute Wind Direction WDIR
2:21 am 13.6 kts-
Previous observations
TIME
(ADT)
5-day plot - Wind Direction
WDIR
 
5-day plot - Wind Speed
WSPD
kts
5-day plot - Wind Gust
GST
kts
5-day plot - Wave Height
WVHT
ft
5-day plot - Dominant Wave Period
DPD
sec
5-day plot - Average Wave Period
APD
sec
5-day plot - Mean Wave Direction
MWD
 
5-day plot - Atmospheric Pressure
PRES
in
5-day plot - Pressure Tendency
PTDY
in
5-day plot - Air Temperature
ATMP
°F
5-day plot - Water Temperature
WTMP
°F
5-day plot - Dew Point
DEWP
°F
5-day plot - Salinity
SAL
psu
5-day plot - Visibility
VIS
nmi
5-day plot - Tide (above MLLW)
TIDE
ft
2024-04-15 02:20 am E 13.6 17.5 7.5 96.4 NE29.90- 80.6 82.4 73.9---
2024-04-15 02:10 am E 13.6 15.5 7.5-6.4 NE29.90- 80.8 82.4 74.1---
2024-04-15 02:00 am E 13.6 17.5----29.90-0.04 80.8 82.4 73.8---
2024-04-15 01:50 am E 13.6 17.5 7.2 86.3 NE29.90- 81.0 82.4 74.1---
2024-04-15 01:40 am E 15.5 17.5 7.2-6.3 NE29.91- 80.8 82.4 73.9---
2024-04-15 01:30 am E 13.6 17.5----29.91- 81.0 82.4 74.1---
2024-04-15 01:20 am E 13.6 19.4 6.9 96.2 NE29.91- 80.8 82.4 73.8---
2024-04-15 01:10 am E 15.5 19.4 6.9-6.2 NE29.91- 80.8 82.4 73.8---
2024-04-15 01:00 am E 13.6 17.5----29.92-0.02 81.0 82.4 74.8---
2024-04-15 12:50 am E 15.5 17.5 7.5 96.5 NE29.92- 81.0 82.4 74.5---
2024-04-15 12:40 am E 13.6 19.4----29.93- 81.0 82.4 75.0---
2024-04-15 12:30 am E 15.5 19.4----29.93- 81.1 82.4 74.3---
2024-04-15 12:20 am E 15.5 17.5 7.9 96.4 NE29.93- 81.1 82.4 74.1---
2024-04-15 12:10 am E 15.5 17.5----29.93- 81.1 82.4 74.5---
2024-04-15 12:00 am E 15.5 19.4----29.93+0.01 81.1 82.4 73.9---
2024-04-14 11:50 pm E 15.5 19.4 6.9 96.2 NE29.93- 81.1 82.4 74.7---
2024-04-14 11:40 pm E 15.5 21.4 6.9-6.2 NE29.93- 81.1 82.4 75.2---
2024-04-14 11:30 pm E 15.5 19.4----29.94- 81.0 82.4 75.0---
2024-04-14 11:20 pmENE 13.6 17.5 7.2 86.4ENE29.94- 81.1 82.4 75.0---
2024-04-14 11:10 pm E 13.6 17.5 7.2-6.4ENE29.94- 81.3 82.4 74.1---
2024-04-14 11:00 pm E 15.5 17.5----29.94+0.03 81.1 82.4 73.9---
2024-04-14 10:50 pm E 15.5 17.5 7.5 86.4 NE29.94- 81.3 82.4 74.1---
2024-04-14 10:40 pm E 13.6 19.4----29.94- 81.3 82.4 74.3---
2024-04-14 10:30 pm E 15.5 19.4----29.94- 81.3 82.4 73.8---
2024-04-14 10:20 pmENE 15.5 19.4 7.2 96.4 NE29.94- 81.3 82.4 74.1---
2024-04-14 10:10 pmENE 15.5 19.4 7.2-6.4 NE29.94- 81.1 82.4 74.5---
2024-04-14 10:00 pm E 13.6 17.5----29.94+0.04 81.1 82.4 74.3---
2024-04-14 09:50 pm E 15.5 19.4 7.9 86.5 NE29.93- 81.1 82.4 74.1---
2024-04-14 09:40 pm E 15.5 19.4----29.93- 81.1- 74.5---
2024-04-14 09:30 pm E 15.5 19.4----29.93- 81.3 82.4 74.1---
2024-04-14 09:20 pm E 15.5 19.4 7.2 96.2NNE29.93- 81.1 82.4 73.9---
2024-04-14 09:10 pm E 15.5 19.4 7.2-6.2NNE29.93- 81.3 82.4 74.1---
2024-04-14 09:00 pm E 15.5 17.5----29.92+0.03 81.5 82.4 73.2---
2024-04-14 08:50 pm E 15.5 17.5 7.5 96.5 NE29.92- 81.5 82.4 73.9---
2024-04-14 08:40 pm E 15.5 19.4----29.92- 81.5 82.4 74.5---
2024-04-14 08:30 pmENE 15.5 17.5----29.91- 81.3 82.4 74.5---
2024-04-14 08:20 pmENE 15.5 19.4 7.2 96.3 NE29.91- 81.3 82.4 75.0---
2024-04-14 08:10 pm E 15.5 19.4 7.2-6.3 NE29.91- 81.3 82.4 74.8---
2024-04-14 08:00 pm E 15.5 17.5----29.91+0.04 81.3 82.4 75.0---
2024-04-14 07:50 pmENE 13.6 17.5 7.2 96.4NNE29.91- 81.3 82.4 75.2---
2024-04-14 07:40 pm E 13.6 17.5 7.2-6.4NNE29.91- 81.5 82.4 75.0---
2024-04-14 07:30 pm E 13.6 17.5----29.91- 81.5 82.4 74.7---
2024-04-14 07:20 pm E 13.6 17.5 7.2 96.4 NE29.91- 81.5 82.4 74.8---
2024-04-14 07:10 pm E 13.6 17.5 7.2-6.4 NE29.91- 81.5 82.4 75.0---
2024-04-14 07:00 pm E 13.6 17.5----29.90+0.02 81.5 82.4 74.5---
2024-04-14 06:50 pm E 13.6 19.4 7.2 96.3 NE29.90- 81.7 82.4 74.5---
2024-04-14 06:40 pm E 13.6 17.5----29.90- 81.7 82.6 74.5---
2024-04-14 06:30 pm E 15.5 19.4----29.90- 81.7 82.6 73.8---
2024-04-14 06:20 pm E 13.6 17.5 7.9 96.5 NE29.89- 81.7 82.6 74.5---
2024-04-14 06:10 pm E 13.6 19.4----29.89- 81.5 82.6 74.8---
2024-04-14 06:00 pmENE 13.6 17.5----29.89+0.00 81.5 82.6 75.4---
2024-04-14 05:50 pm E 13.6 17.5 7.2 96.4 NE29.88- 81.7 82.6 75.4---
2024-04-14 05:40 pm E 13.6 17.5 7.2-6.4 NE29.88- 81.7 82.6 75.4---
2024-04-14 05:30 pm E 13.6 17.5----29.88- 81.7 82.6 75.4---
2024-04-14 05:20 pm E 13.6 17.5 7.9 96.6 NE29.88- 81.7 82.6 75.0---
2024-04-14 05:10 pm E 15.5 19.4----29.88- 81.7 82.6 74.8---
2024-04-14 05:00 pm E 15.5 19.4----29.88-0.03 81.7 82.6 74.8---
2024-04-14 04:50 pm E 15.5 17.5 7.5 96.5 NE29.88- 81.7 82.6 74.8---
2024-04-14 04:40 pm E 15.5 17.5----29.88- 81.7 82.6 74.8---
2024-04-14 04:30 pm E 13.6 17.5----29.87- 81.7 82.6 75.4---
2024-04-14 04:20 pm E 15.5 19.4 7.5 106.4NNE29.88- 81.5 82.6 74.5---
2024-04-14 04:10 pm E 13.6 17.5 7.5-6.4NNE29.88- 81.5 82.6 74.8---
2024-04-14 04:00 pm E 15.5 17.5----29.88-0.05 81.5 82.6 75.0---
2024-04-14 03:50 pm E 13.6 17.5 7.2 96.3 NE29.88- 81.5 82.6 75.2---
2024-04-14 03:40 pm E 13.6 17.5----29.88- 81.5 82.6 75.4---
2024-04-14 03:30 pm E 15.5 17.5----29.88- 81.5 82.6 75.0---
2024-04-14 03:20 pm E 13.6 17.5 7.5 96.4NNE29.88- 81.5 82.6 74.8---
2024-04-14 03:10 pm E 13.6 17.5 7.5-6.4NNE29.88- 81.5 82.6 75.2---
2024-04-14 03:00 pmENE 13.6 17.5----29.89-0.06 81.5 82.6 74.8---
2024-04-14 02:50 pm E 13.6 17.5 7.5 86.3 NE29.89- 81.5 82.6 74.8---
2024-04-14 02:40 pm E 13.6 17.5----29.90- 81.5 82.6 74.8---
2024-04-14 02:30 pm E 13.6 17.5----29.90- 81.3 82.6 74.8---
2024-04-14 02:20 pm E 13.6 17.5 7.9 96.3 NE29.90- 81.5 82.6 75.6---
2024-04-14 02:10 pm E 13.6 17.5 7.9-6.3 NE29.90- 81.3 82.6 74.7---
2024-04-14 02:00 pm E 13.6 17.5----29.90-0.05 81.3 82.6 75.2---
2024-04-14 01:50 pm E 15.5 17.5 8.2 96.5NNE29.91- 81.5 82.6 74.7---
2024-04-14 01:40 pm E 15.5 19.4 8.2-6.5NNE29.91- 81.5 82.6 74.5---
2024-04-14 01:30 pm E 13.6 19.4----29.91- 81.7 82.6 74.5---
2024-04-14 01:20 pm E 15.5 19.4 8.5 96.8 NE29.92- 81.5 82.6 74.3---
2024-04-14 01:10 pm E 13.6 17.5 8.5-6.8 NE29.93- 81.5 82.6 74.5---
2024-04-14 01:00 pm E 15.5 19.4----29.93-0.02 81.5 82.6 74.5---
2024-04-14 12:50 pm E 15.5 19.4 8.2 96.5 NE29.93- 81.5 82.6 74.3---
2024-04-14 12:40 pm E 15.5 21.4 8.2-6.5 NE29.94- 81.5 82.6 74.8---
2024-04-14 12:30 pm E 15.5 19.4----29.95- 81.5 82.4 74.8---
2024-04-14 12:20 pm E 15.5 19.4 7.9 96.3 NE29.95- 81.5 82.4 74.8---
2024-04-14 12:10 pm E 15.5 19.4 7.9-6.3 NE29.95- 81.5 82.4 74.7---
2024-04-14 12:00 pm E 15.5 19.4----29.95+0.01 81.5 82.4 75.0---
2024-04-14 11:50 am E 15.5 19.4 8.2 96.4 NE29.96- 81.5 82.4 74.7---
2024-04-14 11:40 am E 15.5 19.4 8.2-6.4 NE29.96- 81.5 82.4 74.5---
2024-04-14 11:30 am E 15.5 19.4----29.96- 81.5 82.4 74.8---
2024-04-14 11:20 am E 17.5 19.4 8.2 96.3 NE29.96- 81.5 82.4 74.3---
2024-04-14 11:10 am E 17.5 21.4 8.2-6.3 NE29.95- 81.3 82.4 74.7---
2024-04-14 11:00 am E 15.5 21.4----29.95+0.03 81.3 82.4 75.0---
2024-04-14 10:50 am E 15.5 19.4 7.5 96.2 NE29.95- 81.3 82.4 74.7---
2024-04-14 10:40 am E 15.5 19.4----29.95- 81.1 82.4 74.7---
2024-04-14 10:30 am E 15.5 19.4----29.95- 81.1 82.4 74.7---
2024-04-14 10:20 am E 15.5 19.4 8.5 86.5ENE29.95- 81.3 82.4 74.5---
2024-04-14 10:10 am E 15.5 21.4 8.5-6.5ENE29.95- 81.3 82.4 74.5---
2024-04-14 10:00 am E 17.5 21.4----29.95+0.04 81.3 82.4 73.9---
2024-04-14 09:50 am E 17.5 21.4 8.2 86.4 NE29.95- 81.5 82.4 74.3---
2024-04-14 09:40 am E 17.5 21.4 8.2-6.4 NE29.94- 81.5 82.4 74.3---
2024-04-14 09:30 am E 17.5 21.4----29.94- 81.5 82.4 74.7---
2024-04-14 09:20 am E 17.5 23.3 7.9 96.3 NE29.95- 81.5 82.4 73.9---
2024-04-14 09:10 am E 17.5 23.3----29.94- 81.5 82.4 74.3---
2024-04-14 09:00 am E 17.5 21.4----29.94+0.04 81.5 82.4 73.9---
2024-04-14 08:50 am E 17.5 21.4 7.9 96.4 NE29.93- 81.5 82.4 73.9---
2024-04-14 08:40 am E 17.5 21.4----29.93- 81.3 82.4 74.3---
2024-04-14 08:30 am E 17.5 21.4----29.93- 81.0 82.4 74.8---
2024-04-14 08:20 am E 17.5 21.4 7.9 96.6 NE29.93- 81.1 82.4 75.2---
2024-04-14 08:10 am E 15.5 19.4 7.9-6.6 NE29.93- 81.3 82.4 75.2---
2024-04-14 08:00 am E 17.5 21.4----29.92+0.03 81.3 82.4 74.8---
2024-04-14 07:50 am E 17.5 21.4 8.5 96.6 NE29.92- 81.3 82.4 74.8---
2024-04-14 07:40 am E 15.5 19.4----29.92- 81.3 82.4 75.2---
2024-04-14 07:30 am E 15.5 19.4----29.91- 81.1 82.4 74.8---
2024-04-14 07:20 am E 17.5 19.4 8.2 106.6NNE29.91- 81.0 82.4 75.0---
2024-04-14 07:10 am E 17.5 21.4 8.2-6.6NNE29.91- 81.1 82.4 75.0---
2024-04-14 07:00 am E 17.5 21.4----29.91+0.02 81.0 82.4 75.0---
2024-04-14 06:50 am E 17.5 21.4 8.2 96.8NNE29.91- 81.0 82.4 74.7---
2024-04-14 06:40 am E 17.5 19.4----29.90- 80.8 82.4 75.2---
2024-04-14 06:30 am E 17.5 21.4----29.90- 80.8 82.4 74.8---
2024-04-14 06:20 am E 15.5 21.4 8.5 96.7NNE29.90- 80.8 82.4 74.8---
2024-04-14 06:10 am E 15.5 19.4 8.5-6.7NNE29.90- 80.8- 74.8---
2024-04-14 06:00 am E 15.5 19.4----29.90+0.00 80.8 82.4 74.5---
2024-04-14 05:50 am E 15.5 19.4 8.2 96.6 NE29.90- 80.8 82.4 74.8---
2024-04-14 05:40 am E 15.5 19.4 8.2-6.6 NE29.90- 80.8 82.4 74.5---
2024-04-14 05:30 am E 15.5 19.4----29.90- 80.8 82.4 74.7---
2024-04-14 05:20 am E 15.5 19.4 8.9 86.7 NE29.90- 80.8 82.4 74.1---
2024-04-14 05:10 am E 15.5 19.4 8.9-6.7 NE29.89- 80.8 82.4 73.8---
2024-04-14 05:00 am E 15.5 19.4----29.89-0.02 80.8 82.4 74.1---
2024-04-14 04:50 am E 17.5 21.4 8.5 96.9 NE29.89- 80.8 82.4 73.4---
2024-04-14 04:40 am E 17.5 21.4----29.89- 81.0 82.4 73.9---
2024-04-14 04:30 am E 17.5 21.4----29.89- 80.8 82.4 74.1---
2024-04-14 04:20 am E 17.5 19.4 8.2 106.7NNE29.89- 80.8 82.4 74.5---
2024-04-14 04:10 am E 15.5 19.4 8.2-6.7NNE29.89- 80.8 82.4 74.7---
2024-04-14 04:00 am E 15.5 19.4----29.89-0.04 81.0 82.4 75.0---
2024-04-14 03:50 am E 15.5 19.4 8.5 86.8 NE29.89- 80.8 82.4 74.8---
2024-04-14 03:40 am E 15.5 19.4 8.5-6.8 NE29.89- 81.0 82.4 74.7---
2024-04-14 03:30 am E 15.5 19.4----29.89- 81.0 82.4 74.3---
2024-04-14 03:20 am E 15.5 19.4 8.2 96.7 NE29.89- 80.8 82.4 74.8---
2024-04-14 03:10 am E 15.5 19.4 8.2-6.7 NE29.89- 80.8 82.4 74.5---
2024-04-14 03:00 am E 15.5 19.4----29.90-0.06 80.8 82.4 75.0---
2024-04-14 02:50 am E 15.5 19.4 8.5 96.7 NE29.90- 81.0 82.4 74.8---

Detailed Wave Summary
for 41040 as of (2:10 am ADT)
0510 GMT on 04/15/2024:

These wave data are displayed in rounded times.

     

Click on the graph icon in the table below to see a time series plot of the last five days of that observation.

5-day plot - Significant Wave Height Significant Wave Height (WVHT): 7.5 ft
5-day plot - Swell Height Swell Height (SwH): 6.2 ft
5-day plot - Swell Period Swell Period (SwP): 9.1 sec
5-day plot - Swell Direction Swell Direction (SwD): NE
5-day plot - Wind Wave Height Wind Wave Height (WWH): 4.3 ft
5-day plot - Wind Wave Period Wind Wave Period (WWP): 5.9 sec
5-day plot - Wind Wave Direction Wind Wave Direction (WWD):ENE
5-day plot - Wave Steepness Wave Steepness (STEEPNESS): AVERAGE
5-day plot - Average Wave Period Average Wave Period (APD): 6.4 sec
Previous observations
TIME
(ADT)
5-day plot - Wave Height
WVHT
ft
5-day plot - Swell Height
SwH
ft
5-day plot - Swell Period
SwP
sec
5-day plot - Swell Direction
SwD
 
5-day plot - Wind Wave Height
WWH
ft
5-day plot - Wind Wave Period
WWP
sec
5-day plot - Wind Wave Direction
WWD
 
5-day plot - Wave Steepness
STEEPNESS
 
5-day plot - Average Wave Period
APD
sec
2024-04-15 01:40 am 7.2 5.6 8.3 NE 4.9 5.6 ENE STEEP 6.3
2024-04-15 01:10 am 6.9 5.2 9.1 NE 4.6 7.1 ENE AVERAGE 6.2
2024-04-15 12:40 am 7.5 6.2 9.1 NE 4.3 5.9 ENE AVERAGE 6.5
2024-04-15 12:10 am 7.9 6.2 9.1 NE 4.6 5.9 E AVERAGE 6.4
2024-04-14 11:40 pm 6.9 4.9 9.1 NE 4.9 5.6 E AVERAGE 6.2
2024-04-14 11:10 pm 7.2 6.2 8.3ENE 3.9 5.3 ENE STEEP 6.4
2024-04-14 10:40 pm 7.5 5.9 8.3 NE 4.9 5.6 E STEEP 6.4
2024-04-14 10:10 pm 7.2 5.6 9.1 NE 4.6 7.1 ENE AVERAGE 6.4
2024-04-14 09:40 pm 7.9 6.2 8.3 NE 4.9 6.7 ENE STEEP 6.5
2024-04-14 09:10 pm 7.2 5.6 9.1NNE 4.9 7.1 ENE AVERAGE 6.2
2024-04-14 08:40 pm 7.5 5.9 9.1 NE 4.6 7.1 NE AVERAGE 6.5
2024-04-14 08:10 pm 7.2 5.6 9.1 NE 4.6 5.6 ENE AVERAGE 6.3
2024-04-14 07:40 pm 7.2 5.9 9.1NNE 4.3 5.6 ENE AVERAGE 6.4
2024-04-14 07:10 pm 7.2 5.6 9.1 NE 4.3 5.9 ENE AVERAGE 6.4
2024-04-14 06:40 pm 7.2 5.6 9.1 NE 4.6 6.7 ENE AVERAGE 6.3
2024-04-14 06:10 pm 7.9 6.6 9.1 NE 4.6 6.2 E AVERAGE 6.5
2024-04-14 05:40 pm 7.2 5.9 9.1 NE 3.9 6.2 E AVERAGE 6.4
2024-04-14 05:10 pm 7.9 6.2 9.1 NE 4.9 6.7 ENE AVERAGE 6.6
2024-04-14 04:40 pm 7.5 5.9 9.1 NE 4.6 5.6 ENE AVERAGE 6.5
2024-04-14 04:10 pm 7.5 5.6 10.0NNE 4.9 6.7 E AVERAGE 6.4
2024-04-14 03:40 pm 7.2 5.9 9.1 NE 4.3 5.3 ENE AVERAGE 6.3
2024-04-14 03:10 pm 7.5 5.9 9.1NNE 4.3 5.9 ENE AVERAGE 6.4
2024-04-14 02:40 pm 7.5 6.2 8.3 NE 4.3 5.0 ENE STEEP 6.3
2024-04-14 02:10 pm 7.9 6.2 9.1 NE 4.6 4.5 ESE AVERAGE 6.3
2024-04-14 01:40 pm 8.2 6.6 9.1NNE 4.9 6.7 ENE AVERAGE 6.5
2024-04-14 01:10 pm 8.5 6.9 9.1 NE 4.9 6.2 E AVERAGE 6.8
2024-04-14 12:40 pm 8.2 6.6 9.1 NE 5.2 6.7 ENE AVERAGE 6.5
2024-04-14 12:10 pm 7.9 5.6 9.1 NE 5.6 7.1 ENE AVERAGE 6.3
2024-04-14 11:40 am 8.2 5.6 9.1 NE 6.2 7.7 NE AVERAGE 6.4
2024-04-14 11:10 am 8.2 4.9 9.1 NE 6.6 6.2 ENE AVERAGE 6.3
2024-04-14 10:40 am 7.5 4.9 9.1 NE 5.6 7.7 ENE AVERAGE 6.2
2024-04-14 10:10 am 8.5 5.9 9.1NNE 6.6 7.7 ENE STEEP 6.5
2024-04-14 09:40 am 8.2 0.0-- 8.2 8.3 NE STEEP 6.4
2024-04-14 09:10 am 7.9 5.6 9.1 NE 5.6 6.7 E AVERAGE 6.3
2024-04-14 08:40 am 7.9 4.9 9.1 NE 6.2 7.7 ENE AVERAGE 6.4
2024-04-14 08:10 am 7.9 6.6 9.1 NE 4.6 6.2 ENE AVERAGE 6.6
2024-04-14 07:40 am 8.5 6.2 9.1 NE 5.9 7.7 ENE AVERAGE 6.6
2024-04-14 07:10 am 8.2 5.2 10.0NNE 6.2 5.9 ENE AVERAGE 6.6
2024-04-14 06:40 am 8.2 6.2 9.1NNE 5.6 6.7 ENE AVERAGE 6.8
2024-04-14 06:10 am 8.5 6.2 9.1NNE 5.6 6.2 ENE AVERAGE 6.7
2024-04-14 05:40 am 8.2 6.2 9.1 NE 5.9 5.6 ENE AVERAGE 6.6
2024-04-14 05:10 am 8.9 6.6 8.3 NE 5.9 5.9 E STEEP 6.7
2024-04-14 04:40 am 8.5 6.6 9.1 NE 5.6 5.9 E AVERAGE 6.9
2024-04-14 04:10 am 8.2 5.9 10.0NNE 5.6 6.7 ENE AVERAGE 6.7
2024-04-14 03:40 am 8.5 6.2 8.3 NE 5.9 5.3 E STEEP 6.8
2024-04-14 03:10 am 8.2 6.9 9.1 NE 4.9 6.2 ENE AVERAGE 6.7

Plot of wave energy versus frequency (and period)